Regional Weather Roundup
Issued by NWS

Home | Current Version | Previous Version | Text Only | Print | Product List | Glossary On
Versions: 1 2 3 4 5 6 7 8 9 10 11 12 13 14 15 16 17 18 19 20 21 22 23 24 25 26 27 28 29 30 31 32 33 34 35 36 37 38 39 40 41 42 43 44 45 46 47 48 49 50
502
ASUS44 KJAN 240710
RWRMS

MISSISSIPPI HOURLY WEATHER ROUNDUP
NATIONAL WEATHER SERVICE JACKSON MS
200 AM CDT FRI OCT 24 2014

NOTE: "FAIR: INDICATES FEW OR NO CLOUDS BELOW 12,000 FEET WITH NO
SIGNIFICANT WEATHER AND/OR OBSTRUCTIONS TO VISIBILITY.

MSZ001>002-007>008-010>013-018>021-025>028-034>036-240800-
NORTHWEST MISSISSIPPI

CITY           SKY/WX    TMP DP  RH WIND       PRES   REMARKS
CLARKSDALE     FAIR      48  48 100 CALM      30.15R
CLEVELAND      FAIR      49  48  99 NW3       30.14R
GREENWOOD      PTCLDY    47  46  97 CALM      30.13R
GREENVILLE     PTCLDY    47  45  93 N6        30.14R
GRENADA          N/A    N/A N/A N/A MISG        N/A
OLIVE BRANCH   CLEAR     48  48 100 CALM      30.14R
OXFORD         FAIR      48  45  87 NE5       30.14S
TUNICA         PTSUNNY   46  45  93 CALM      30.15R
$$

MSZ003>006-009-014>017-022>024-029>033-037>039-240800-
NORTHEAST MISSISSIPPI

CITY           SKY/WX    TMP DP  RH WIND       PRES   REMARKS
COLUMBUS AFB   CLOUDY    53  49  89 E2        30.09F
CORINTH        FAIR      50  48  93 W5        30.12R
GOLDN TRIANGLE CLOUDY    54  46  76 CALM      30.08F
STARKVILLE     FAIR      50  48  93 CALM      30.09S
TUPELO         CLOUDY    52  48  86 N6        30.10R
$$

MSZ040-058-240800-
CENTRAL MISSISSIPPI

CITY           SKY/WX    TMP DP  RH WIND       PRES   REMARKS
JACKSON INTL   CLEAR     47  45  93 CALM      30.11S FOG
JACKSON HAWKNS CLEAR     50  47  89 CALM      30.11S
MERIDIAN KEY   MOCLDY    49  47  93 CALM      30.10S
MERIDIAN NAS   MOCLDY    50  47  89 CALM      30.10R
RAYMOND        FAIR      43  39  87 CALM      30.12R FOG
VICKSBURG      CLEAR     45  44  97 N3        30.12S
$$

MSZ059>079-240800-
SOUTH MISSISSIPPI

CITY           SKY/WX    TMP DP  RH WIND       PRES   REMARKS
BROOKHAVEN     FAIR      48  48 100 CALM      30.12S
COLUMBIA         N/A    N/A N/A N/A MISG        N/A
HATTIESBURG    CLEAR     52  49  89 W3        30.10S
MCCOMB         CLEAR     54  48  80 N6        30.10S
NATCHEZ        CLEAR     46  45  93 CALM      30.12R
PINE BELT      CLEAR     52  45  76 N5        30.10F
$$

MSZ080>082-240800-
COASTAL MISSISSIPPI

CITY           SKY/WX    TMP DP  RH WIND       PRES   REMARKS
BILOXI         CLEAR     58  48  68 NE8       30.06S
PASCAGOULA     PTCLDY    48  46  93 CALM      30.06S
GULFPORT       CLEAR     58  46  64 N5        30.05F
$$



USA.gov is the U.S. government's official web portal to all federal, state and local government web resources and services.